Weather History for KSIY - March, 2014

Change the Weather History Date:

Saturday, March 29, 2014

  Actual Average Record
Temperature  
Mean Temperature 47 °F 44 °F  
Max Temperature 54 °F 57 °F 79 °F (1986)
Min Temperature 40 °F 30 °F 16 °F (2008)
Degree Days  
Heating Degree Days 18 21  
Month to date heating degree days 513 642  
Since 1 July heating degree days 4561 4519  
Cooling Degree Days 0 0  
Month to date cooling degree days 0 0  
Year to date cooling degree days 0 0  
Moisture  
Dew Point 36 °F    
Average Humidity 70    
Maximum Humidity 93    
Minimum Humidity 38    
Precipitation  
Precipitation 0.05 in 0.08 in 0.84 in (1974)
Month to date precipitation 2.31 2.16  
Year to date precipitation 4.75 6.37  
Sea Level Pressure  
Sea Level Pressure 29.97 in    
Wind  
Wind Speed 8 mph (NW)    
Max Wind Speed 22 mph    
Max Gust Speed 28 mph    
Visibility 10 miles    
Events Rain    
T = Trace of Precipitation, MM = Missing Value Source: NWS Daily Summary

Daily Weather History Graph

Daily Weather History Graph

Search for Another Location

Airport or City:

Trip Planner

Search our weather history database for the weather conditions in past years. The results will help you decide how hot, cold, wet, or windy it might be!

Date:

Astronomy

Mar. 29, 2014 Rise Set
Actual Time 6:57 AM PDT 7:32 PM PDT
Civil Twilight 6:29 AM PDT 8:00 PM PDT
Nautical Twilight 5:56 AM PDT 8:33 PM PDT
Astronomical Twilight 5:22 AM PDT 9:07 PM PDT
Moon 6:10 AM PDT 6:43 PM PDT
Length of Visible Light 13h 30m
Length of Day
12h 34m
Waning Crescent, 1% of the Moon is Illuminated
Mar 29
Waning Crescent
Mar 30
New
Apr 7
First Quarter
Apr 15
Full
Apr 22
Last Quarter

Hourly Weather History & Observations

Time (PDT) Temp. Windchill Dew Point Humidity Pressure Visibility Wind Dir Wind Speed Gust Speed Precip Events Conditions
12:53 AM 46.0 °F - 43.0 °F 89% 29.93 in 8.0 mi Calm Calm - 0.05 in Rain Light Rain
1:53 AM 45.0 °F 42.6 °F 43.0 °F 93% 29.94 in 10.0 mi NNE 4.6 mph - 0.02 in Rain Light Rain
2:53 AM 45.0 °F 41.8 °F 43.0 °F 93% 29.95 in 10.0 mi East 5.8 mph - 0.03 in Rain Light Rain
3:53 AM 44.1 °F 40.8 °F 42.1 °F 93% 29.94 in 10.0 mi North 5.8 mph - 0.01 in   Overcast
4:53 AM 43.0 °F 41.3 °F 39.9 °F 89% 29.95 in 10.0 mi NNE 3.5 mph - N/A   Partly Cloudy
5:53 AM 41.0 °F 39.0 °F 39.0 °F 93% 29.96 in 10.0 mi NNE 3.5 mph - N/A   Partly Cloudy
6:53 AM 41.0 °F 35.8 °F 37.0 °F 86% 29.97 in 10.0 mi North 8.1 mph - N/A   Clear
7:53 AM 41.0 °F 37.1 °F 37.9 °F 89% 29.98 in 10.0 mi NNE 5.8 mph - N/A   Clear
8:53 AM 44.1 °F 41.5 °F 37.9 °F 79% 29.99 in 10.0 mi NE 4.6 mph - N/A   Clear
9:53 AM 46.9 °F - 37.9 °F 71% 29.99 in 10.0 mi West 11.5 mph - N/A   Clear
10:53 AM 50.0 °F - 34.0 °F 54% 30.00 in 10.0 mi WSW 4.6 mph - N/A   Partly Cloudy
11:53 AM 51.1 °F - 34.0 °F 52% 29.99 in 10.0 mi SW 12.7 mph - N/A   Partly Cloudy
12:53 PM 52.0 °F - 30.0 °F 43% 29.98 in 10.0 mi SW 17.3 mph - N/A   Partly Cloudy
1:53 PM 51.1 °F - 30.0 °F 44% 29.98 in 10.0 mi WSW 16.1 mph - N/A   Clear
2:53 PM 51.1 °F - 30.0 °F 44% 29.96 in 10.0 mi SW 8.1 mph - N/A   Overcast
3:53 PM 53.1 °F - 28.0 °F 38% 29.94 in 10.0 mi SW 6.9 mph - N/A   Overcast
4:53 PM 53.1 °F - 30.9 °F 43% 29.93 in 10.0 mi WSW 13.8 mph 19.6 mph N/A   Overcast
5:53 PM 46.9 °F - 36.0 °F 66% 29.94 in 10.0 mi NNW 13.8 mph - 0.00 in   Overcast
6:53 PM 46.9 °F - 37.0 °F 68% 29.95 in 10.0 mi WNW 5.8 mph - N/A   Scattered Clouds
7:53 PM 46.0 °F 41.4 °F 36.0 °F 68% 29.97 in 10.0 mi WNW 9.2 mph - N/A   Mostly Cloudy
8:53 PM 44.1 °F 40.1 °F 35.1 °F 71% 29.99 in 10.0 mi West 6.9 mph - N/A   Mostly Cloudy
9:53 PM 41.0 °F 37.1 °F 34.0 °F 76% 30.00 in 10.0 mi NE 5.8 mph - N/A   Mostly Cloudy
10:53 PM 42.1 °F 38.4 °F 34.0 °F 73% 29.99 in 10.0 mi West 5.8 mph - N/A   Mostly Cloudy
11:53 PM 42.1 °F 37.7 °F 35.1 °F 76% 30.00 in 10.0 mi NNW 6.9 mph - N/A   Overcast